Time,TemperatureF,DewpointF,PressureIn,WindDirection,WindDirectionDegrees,WindSpeedMPH,WindSpeedGustMPH,Humidity,HourlyPrecipIn,Conditions,Clouds,dailyrainin,SoftwareType,DateUTC
2013-06-01 00:02:00,66.0,36.0,-100.00,WNW,295,3.0,7.0,31,0.00,,,0.00,,2013-06-01 08:02:00,
2013-06-01 00:11:00,66.0,36.0,-100.00,WNW,295,3.0,7.0,31,0.00,,,0.00,,2013-06-01 08:11:00,
2013-06-01 00:21:00,64.0,35.0,-100.00,NNE,30,4.0,9.0,34,0.00,,,0.00,,2013-06-01 08:21:00,
2013-06-01 00:32:00,64.0,35.0,-100.00,NNE,30,4.0,9.0,34,0.00,,,0.00,,2013-06-01 08:32:00,
2013-06-01 00:42:00,64.0,35.0,-100.00,NNE,30,4.0,9.0,34,0.00,,,0.00,,2013-06-01 08:42:00,
2013-06-01 00:52:00,63.0,35.0,-100.00,North,0,3.0,6.0,34,0.00,,,0.00,,2013-06-01 08:52:00,
2013-06-01 01:01:00,63.0,35.0,-100.00,North,0,3.0,6.0,34,0.00,,,0.00,,2013-06-01 09:01:00,
2013-06-01 01:12:00,63.0,35.0,-100.00,North,0,3.0,6.0,34,0.00,,,0.00,,2013-06-01 09:12:00,
2013-06-01 01:21:00,63.0,35.0,-100.00,North,0,3.0,7.0,34,0.00,,,0.00,,2013-06-01 09:21:00,
2013-06-01 01:33:00,63.0,35.0,-100.00,North,0,3.0,7.0,34,0.00,,,0.00,,2013-06-01 09:33:00,
2013-06-01 01:42:00,63.0,35.0,-100.00,North,0,3.0,7.0,34,0.00,,,0.00,,2013-06-01 09:42:00,
2013-06-01 01:53:00,61.0,34.0,-100.00,NNW,335,3.0,9.0,35,0.00,,,0.00,,2013-06-01 09:53:00,
2013-06-01 02:02:00,61.0,34.0,-100.00,NNW,335,3.0,9.0,35,0.00,,,0.00,,2013-06-01 10:02:00,
2013-06-01 02:12:00,61.0,34.0,-100.00,NNW,335,3.0,9.0,35,0.00,,,0.00,,2013-06-01 10:12:00,
2013-06-01 02:22:00,60.0,34.0,-100.00,North,0,2.0,6.0,37,0.00,,,0.00,,2013-06-01 10:22:00,
2013-06-01 02:32:00,60.0,34.0,-100.00,North,0,2.0,6.0,37,0.00,,,0.00,,2013-06-01 10:32:00,
2013-06-01 02:42:00,60.0,34.0,-100.00,North,0,2.0,6.0,37,0.00,,,0.00,,2013-06-01 10:42:00,
2013-06-01 02:52:00,58.0,33.0,-100.00,North,0,2.0,6.0,38,0.00,,,0.00,,2013-06-01 10:52:00,
2013-06-01 03:02:00,58.0,33.0,-100.00,North,0,2.0,6.0,38,0.00,,,0.00,,2013-06-01 11:02:00,
2013-06-01 03:11:00,58.0,33.0,-100.00,North,0,2.0,6.0,38,0.00,,,0.00,,2013-06-01 11:11:00,
2013-06-01 03:21:00,57.0,33.0,-100.00,NNE,20,4.0,7.0,39,0.00,,,0.00,,2013-06-01 11:21:00,
2013-06-01 03:32:00,57.0,33.0,-100.00,NNE,20,4.0,7.0,39,0.00,,,0.00,,2013-06-01 11:32:00,
2013-06-01 03:42:00,57.0,33.0,-100.00,NNE,20,4.0,7.0,39,0.00,,,0.00,,2013-06-01 11:42:00,
2013-06-01 03:52:00,57.0,32.0,-100.00,North,5,4.0,7.0,38,0.00,,,0.00,,2013-06-01 11:52:00,
2013-06-01 04:01:00,57.0,32.0,-100.00,North,5,4.0,7.0,38,0.00,,,0.00,,2013-06-01 12:01:00,
2013-06-01 04:12:00,57.0,32.0,-100.00,North,5,4.0,7.0,38,0.00,,,0.00,,2013-06-01 12:12:00,
2013-06-01 04:21:00,56.0,31.0,-100.00,North,355,4.0,7.0,38,0.00,,,0.00,,2013-06-01 12:21:00,
2013-06-01 04:32:00,56.0,31.0,-100.00,North,355,4.0,7.0,38,0.00,,,0.00,,2013-06-01 12:32:00,
2013-06-01 04:41:00,56.0,31.0,-100.00,North,355,4.0,7.0,38,0.00,,,0.00,,2013-06-01 12:41:00,
2013-06-01 04:52:00,56.0,32.0,-100.00,NW,325,4.0,6.0,39,0.00,,,0.00,,2013-06-01 12:52:00,
2013-06-01 05:01:00,56.0,32.0,-100.00,NW,325,4.0,6.0,39,0.00,,,0.00,,2013-06-01 13:01:00,
2013-06-01 05:11:00,56.0,32.0,-100.00,NW,325,4.0,6.0,39,0.00,,,0.00,,2013-06-01 13:11:00,
2013-06-01 05:22:00,57.0,32.0,-100.00,NNW,345,4.0,6.0,38,0.00,,,0.00,,2013-06-01 13:22:00,
2013-06-01 05:32:00,57.0,32.0,-100.00,NNW,345,4.0,6.0,38,0.00,,,0.00,,2013-06-01 13:32:00,
2013-06-01 05:42:00,57.0,32.0,-100.00,NNW,345,4.0,6.0,38,0.00,,,0.00,,2013-06-01 13:42:00,
2013-06-01 05:52:00,57.0,32.0,-100.00,North,0,4.0,7.0,38,0.00,,,0.00,,2013-06-01 13:52:00,
2013-06-01 06:02:00,57.0,32.0,-100.00,North,0,4.0,7.0,38,0.00,,,0.00,,2013-06-01 14:02:00,
2013-06-01 06:11:00,57.0,32.0,-100.00,North,0,4.0,7.0,38,0.00,,,0.00,,2013-06-01 14:11:00,
2013-06-01 06:21:00,58.0,32.0,-100.00,NNW,330,4.0,9.0,36,0.00,,,0.00,,2013-06-01 14:21:00,
2013-06-01 06:32:00,58.0,32.0,-100.00,NNW,330,4.0,9.0,36,0.00,,,0.00,,2013-06-01 14:32:00,
2013-06-01 06:42:00,58.0,32.0,-100.00,NNW,330,4.0,9.0,36,0.00,,,0.00,,2013-06-01 14:42:00,
2013-06-01 06:52:00,58.0,32.0,-100.00,North,355,6.0,10.0,36,0.00,,,0.00,,2013-06-01 14:52:00,
2013-06-01 07:01:00,58.0,32.0,-100.00,North,355,6.0,10.0,36,0.00,,,0.00,,2013-06-01 15:01:00,
2013-06-01 07:11:00,58.0,32.0,-100.00,North,355,6.0,10.0,36,0.00,,,0.00,,2013-06-01 15:11:00,
2013-06-01 07:21:00,56.0,31.0,-100.00,NNW,345,4.0,8.0,37,0.00,,,0.00,,2013-06-01 15:21:00,
2013-06-01 07:33:00,56.0,31.0,-100.00,NNW,345,4.0,8.0,37,0.00,,,0.00,,2013-06-01 15:33:00,
2013-06-01 07:43:00,56.0,31.0,-100.00,NNW,345,4.0,8.0,37,0.00,,,0.00,,2013-06-01 15:43:00,
2013-06-01 07:53:00,56.0,32.0,-100.00,North,5,4.0,6.0,39,0.00,,,0.00,,2013-06-01 15:53:00,
2013-06-01 08:03:00,56.0,32.0,-100.00,North,5,4.0,6.0,39,0.00,,,0.00,,2013-06-01 16:03:00,
2013-06-01 08:12:00,56.0,32.0,-100.00,North,5,4.0,6.0,39,0.00,,,0.00,,2013-06-01 16:12:00,
2013-06-01 08:23:00,58.0,33.0,-100.00,North,5,3.0,4.0,38,0.00,,,0.00,,2013-06-01 16:23:00,
2013-06-01 08:33:00,58.0,33.0,-100.00,North,5,3.0,4.0,38,0.00,,,0.00,,2013-06-01 16:33:00,
2013-06-01 08:42:00,58.0,33.0,-100.00,North,5,3.0,4.0,38,0.00,,,0.00,,2013-06-01 16:42:00,
2013-06-01 08:52:00,58.0,34.0,-100.00,North,0,4.0,7.0,39,0.00,,,0.00,,2013-06-01 16:52:00,
2013-06-01 09:02:00,58.0,34.0,-100.00,North,0,4.0,7.0,39,0.00,,,0.00,,2013-06-01 17:02:00,
2013-06-01 09:11:00,58.0,34.0,-100.00,North,0,4.0,7.0,39,0.00,,,0.00,,2013-06-01 17:11:00,
2013-06-01 09:22:00,58.0,35.0,-100.00,NNW,345,2.0,6.0,40,0.00,,,0.00,,2013-06-01 17:22:00,
2013-06-01 09:32:00,58.0,35.0,-100.00,NNW,345,2.0,6.0,40,0.00,,,0.00,,2013-06-01 17:32:00,
2013-06-01 09:42:00,58.0,35.0,-100.00,NNW,345,2.0,6.0,40,0.00,,,0.00,,2013-06-01 17:42:00,
2013-06-01 09:52:00,60.0,35.0,-100.00,North,0,2.0,7.0,39,0.00,,,0.00,,2013-06-01 17:52:00,
2013-06-01 10:01:00,60.0,35.0,-100.00,North,0,2.0,7.0,39,0.00,,,0.00,,2013-06-01 18:01:00,
2013-06-01 10:12:00,60.0,35.0,-100.00,North,0,2.0,7.0,39,0.00,,,0.00,,2013-06-01 18:12:00,
2013-06-01 10:21:00,63.0,37.0,-100.00,NNW,330,4.0,11.0,37,0.00,,,0.00,,2013-06-01 18:21:00,
2013-06-01 10:32:00,63.0,37.0,-100.00,NNW,330,4.0,11.0,37,0.00,,,0.00,,2013-06-01 18:32:00,
2013-06-01 10:41:00,63.0,37.0,-100.00,NNW,330,4.0,11.0,37,0.00,,,0.00,,2013-06-01 18:41:00,
2013-06-01 10:51:00,64.0,38.0,-100.00,NNW,345,4.0,9.0,37,0.00,,,0.00,,2013-06-01 18:51:00,
2013-06-01 11:01:00,64.0,38.0,-100.00,NNW,345,4.0,9.0,37,0.00,,,0.00,,2013-06-01 19:01:00,
2013-06-01 11:11:00,64.0,38.0,-100.00,NNW,345,4.0,9.0,37,0.00,,,0.00,,2013-06-01 19:11:00,
2013-06-01 11:21:00,65.0,38.0,-100.00,North,5,3.0,10.0,37,0.00,,,0.00,,2013-06-01 19:21:00,
2013-06-01 11:32:00,65.0,38.0,-100.00,North,5,3.0,10.0,37,0.00,,,0.00,,2013-06-01 19:32:00,
2013-06-01 11:41:00,65.0,38.0,-100.00,North,5,3.0,10.0,37,0.00,,,0.00,,2013-06-01 19:41:00,
2013-06-01 11:52:00,65.0,39.0,-100.00,North,5,3.0,9.0,37,0.00,,,0.00,,2013-06-01 19:52:00,
2013-06-01 12:01:00,65.0,39.0,-100.00,North,5,3.0,9.0,37,0.00,,,0.00,,2013-06-01 20:01:00,
2013-06-01 12:11:00,65.0,39.0,-100.00,North,5,3.0,9.0,37,0.00,,,0.00,,2013-06-01 20:11:00,
2013-06-01 12:21:00,66.0,39.0,-100.00,NNW,340,6.0,10.0,37,0.00,,,0.00,,2013-06-01 20:21:00,
2013-06-01 12:32:00,66.0,39.0,-100.00,NNW,340,6.0,10.0,37,0.00,,,0.00,,2013-06-01 20:32:00,
2013-06-01 12:41:00,66.0,39.0,-100.00,NNW,340,6.0,10.0,37,0.00,,,0.00,,2013-06-01 20:41:00,
2013-06-01 12:52:00,66.0,39.0,-100.00,WNW,300,6.0,11.0,37,0.00,,,0.00,,2013-06-01 20:52:00,
2013-06-01 13:01:00,66.0,39.0,-100.00,WNW,300,6.0,11.0,37,0.00,,,0.00,,2013-06-01 21:01:00,
2013-06-01 13:11:00,66.0,39.0,-100.00,WNW,300,6.0,11.0,37,0.00,,,0.00,,2013-06-01 21:11:00,
2013-06-01 13:21:00,67.0,40.0,-100.00,WNW,285,4.0,10.0,36,0.00,,,0.00,,2013-06-01 21:21:00,
2013-06-01 13:33:00,67.0,40.0,-100.00,WNW,285,4.0,10.0,36,0.00,,,0.00,,2013-06-01 21:33:00,
2013-06-01 13:42:00,67.0,40.0,-100.00,WNW,285,4.0,10.0,36,0.00,,,0.00,,2013-06-01 21:42:00,
2013-06-01 13:53:00,69.0,38.0,-100.00,North,0,4.0,14.0,32,0.00,,,0.00,,2013-06-01 21:53:00,
2013-06-01 14:03:00,69.0,38.0,-100.00,North,0,4.0,14.0,32,0.00,,,0.00,,2013-06-01 22:03:00,
2013-06-01 14:12:00,69.0,38.0,-100.00,North,0,4.0,14.0,32,0.00,,,0.00,,2013-06-01 22:12:00,
2013-06-01 14:23:00,69.0,38.0,-100.00,North,355,6.0,14.0,31,0.00,,,0.00,,2013-06-01 22:23:00,
2013-06-01 14:33:00,69.0,38.0,-100.00,North,355,6.0,14.0,31,0.00,,,0.00,,2013-06-01 22:33:00,
2013-06-01 14:42:00,69.0,38.0,-100.00,North,355,6.0,14.0,31,0.00,,,0.00,,2013-06-01 22:42:00,
2013-06-01 14:53:00,70.0,38.0,-100.00,NNW,345,4.0,12.0,31,0.00,,,0.00,,2013-06-01 22:53:00,
2013-06-01 15:02:00,70.0,38.0,-100.00,NNW,345,4.0,12.0,31,0.00,,,0.00,,2013-06-01 23:02:00,
2013-06-01 15:11:00,70.0,38.0,-100.00,NNW,345,4.0,12.0,31,0.00,,,0.00,,2013-06-01 23:11:00,
2013-06-01 15:21:00,70.0,38.0,-100.00,WNW,295,5.0,13.0,31,0.00,,,0.00,,2013-06-01 23:21:00,
2013-06-01 15:32:00,70.0,38.0,-100.00,WNW,295,5.0,13.0,31,0.00,,,0.00,,2013-06-01 23:32:00,
2013-06-01 15:42:00,70.0,38.0,-100.00,WNW,295,5.0,13.0,31,0.00,,,0.00,,2013-06-01 23:42:00,
2013-06-01 15:52:00,71.0,39.0,-100.00,North,5,4.0,14.0,31,0.00,,,0.00,,2013-06-01 23:52:00,
2013-06-01 16:02:00,71.0,39.0,-100.00,North,5,4.0,14.0,31,0.00,,,0.00,,2013-06-02 00:02:00,
2013-06-01 16:11:00,71.0,39.0,-100.00,North,5,4.0,14.0,31,0.00,,,0.00,,2013-06-02 00:11:00,
2013-06-01 16:21:00,71.0,38.0,-100.00,WNW,300,4.0,14.0,30,0.00,,,0.00,,2013-06-02 00:21:00,
2013-06-01 16:32:00,71.0,38.0,-100.00,WNW,300,4.0,14.0,30,0.00,,,0.00,,2013-06-02 00:32:00,
2013-06-01 16:41:00,71.0,38.0,-100.00,WNW,300,4.0,14.0,30,0.00,,,0.00,,2013-06-02 00:41:00,
2013-06-01 16:51:00,71.0,38.0,-100.00,NNW,335,4.0,14.0,29,0.00,,,0.00,,2013-06-02 00:51:00,
2013-06-01 17:01:00,71.0,38.0,-100.00,NNW,335,4.0,14.0,29,0.00,,,0.00,,2013-06-02 01:01:00,
2013-06-01 17:11:00,71.0,38.0,-100.00,NNW,335,4.0,14.0,29,0.00,,,0.00,,2013-06-02 01:11:00,
2013-06-01 17:21:00,72.0,38.0,-100.00,NNE,30,5.0,14.0,29,0.00,,,0.00,,2013-06-02 01:21:00,
2013-06-01 17:32:00,72.0,38.0,-100.00,NNE,30,5.0,14.0,29,0.00,,,0.00,,2013-06-02 01:32:00,
2013-06-01 17:41:00,72.0,38.0,-100.00,NNE,30,5.0,14.0,29,0.00,,,0.00,,2013-06-02 01:41:00,
2013-06-01 17:52:00,72.0,38.0,-100.00,NNW,335,6.0,12.0,29,0.00,,,0.00,,2013-06-02 01:52:00,
2013-06-01 18:01:00,72.0,38.0,-100.00,NNW,335,6.0,12.0,29,0.00,,,0.00,,2013-06-02 02:01:00,
2013-06-01 18:12:00,72.0,38.0,-100.00,NNW,335,6.0,12.0,29,0.00,,,0.00,,2013-06-02 02:12:00,
2013-06-01 18:21:00,73.0,39.0,-100.00,North,0,7.0,13.0,29,0.00,,,0.00,,2013-06-02 02:21:00,
2013-06-01 18:32:00,73.0,39.0,-100.00,North,0,7.0,13.0,29,0.00,,,0.00,,2013-06-02 02:32:00,
2013-06-01 18:41:00,73.0,39.0,-100.00,North,0,7.0,13.0,29,0.00,,,0.00,,2013-06-02 02:41:00,
2013-06-01 18:51:00,72.0,39.0,-100.00,NNW,330,4.0,13.0,29,0.00,,,0.00,,2013-06-02 02:51:00,
2013-06-01 19:02:00,72.0,39.0,-100.00,NNW,330,4.0,13.0,29,0.00,,,0.00,,2013-06-02 03:02:00,
2013-06-01 19:11:00,72.0,39.0,-100.00,NNW,330,4.0,13.0,29,0.00,,,0.00,,2013-06-02 03:11:00,
2013-06-01 19:21:00,72.0,38.0,-100.00,NNE,15,7.0,12.0,29,0.00,,,0.00,,2013-06-02 03:21:00,
2013-06-01 19:33:00,72.0,38.0,-100.00,NNE,15,7.0,12.0,29,0.00,,,0.00,,2013-06-02 03:33:00,
2013-06-01 19:43:00,72.0,38.0,-100.00,NNE,15,7.0,12.0,29,0.00,,,0.00,,2013-06-02 03:43:00,
2013-06-01 19:52:00,71.0,38.0,-100.00,NE,40,7.0,14.0,29,0.00,,,0.00,,2013-06-02 03:52:00,
2013-06-01 20:02:00,71.0,38.0,-100.00,NE,40,7.0,14.0,29,0.00,,,0.00,,2013-06-02 04:02:00,
2013-06-01 20:13:00,71.0,38.0,-100.00,NE,40,7.0,14.0,29,0.00,,,0.00,,2013-06-02 04:13:00,
2013-06-01 20:23:00,71.0,38.0,-100.00,ENE,60,7.0,12.0,29,0.00,,,0.00,,2013-06-02 04:23:00,
2013-06-01 20:33:00,71.0,38.0,-100.00,ENE,60,7.0,12.0,29,0.00,,,0.00,,2013-06-02 04:33:00,
2013-06-01 20:42:00,71.0,38.0,-100.00,ENE,60,7.0,12.0,29,0.00,,,0.00,,2013-06-02 04:42:00,
2013-06-01 20:52:00,70.0,37.0,-100.00,NE,55,8.0,16.0,29,0.00,,,0.00,,2013-06-02 04:52:00,
2013-06-01 21:02:00,70.0,37.0,-100.00,NE,55,8.0,16.0,29,0.00,,,0.00,,2013-06-02 05:02:00,
2013-06-01 21:11:00,70.0,37.0,-100.00,NE,55,8.0,16.0,29,0.00,,,0.00,,2013-06-02 05:11:00,
2013-06-01 21:22:00,69.0,36.0,-100.00,NE,50,9.0,18.0,30,0.00,,,0.00,,2013-06-02 05:22:00,
2013-06-01 21:32:00,69.0,36.0,-100.00,NE,50,9.0,18.0,30,0.00,,,0.00,,2013-06-02 05:32:00,
2013-06-01 21:42:00,69.0,36.0,-100.00,NE,50,9.0,18.0,30,0.00,,,0.00,,2013-06-02 05:42:00,
2013-06-01 21:52:00,67.0,35.0,-100.00,NE,50,10.0,17.0,30,0.00,,,0.00,,2013-06-02 05:52:00,
2013-06-01 22:01:00,67.0,35.0,-100.00,NE,50,10.0,17.0,30,0.00,,,0.00,,2013-06-02 06:01:00,
2013-06-01 22:12:00,67.0,35.0,-100.00,NE,50,10.0,17.0,30,0.00,,,0.00,,2013-06-02 06:12:00,
2013-06-01 22:21:00,66.0,34.0,-100.00,NE,45,7.0,12.0,31,0.00,,,0.00,,2013-06-02 06:21:00,
2013-06-01 22:32:00,66.0,34.0,-100.00,NE,45,7.0,12.0,31,0.00,,,0.00,,2013-06-02 06:32:00,
2013-06-01 22:41:00,66.0,34.0,-100.00,NE,45,7.0,12.0,31,0.00,,,0.00,,2013-06-02 06:41:00,
2013-06-01 22:52:00,64.0,34.0,-100.00,NE,45,9.0,15.0,31,0.00,,,0.00,,2013-06-02 06:52:00,
2013-06-01 23:01:00,64.0,34.0,-100.00,NE,45,9.0,15.0,31,0.00,,,0.00,,2013-06-02 07:01:00,
2013-06-01 23:11:00,64.0,34.0,-100.00,NE,45,9.0,15.0,31,0.00,,,0.00,,2013-06-02 07:11:00,
2013-06-01 23:21:00,62.0,33.0,-100.00,NE,50,11.0,15.0,33,0.00,,,0.00,,2013-06-02 07:21:00,
2013-06-01 23:31:00,62.0,33.0,-100.00,NE,50,11.0,15.0,33,0.00,,,0.00,,2013-06-02 07:31:00,
2013-06-01 23:42:00,62.0,33.0,-100.00,NE,50,11.0,15.0,33,0.00,,,0.00,,2013-06-02 07:42:00,
2013-06-01 23:52:00,61.0,33.0,-100.00,NE,40,9.0,16.0,34,0.00,,,0.00,,2013-06-02 07:52:00,